Location: Monrovia
(34.7865°N, 86.7139°W)
Time: 00:24:57
(UTC+00:00)

DELTA 2 R/B (1) - Pass Details

Date: 14 July 2020
Orbit: 790 x 803 km, 39.6° (Epoch: 12 August)

Event Time Altitude Azimuth Distance (km) Brightness Sun altitude
Rises 04:31:37 0° 290° (WNW) 3,287 7.3 -30.4°
Reaches altitude 10° 04:34:05 10° 291° (WNW) 2,358 6.5 -30.6°
Enters shadow 04:37:57 46° 290° (WNW) 1,053 4.3 -30.9°
